Time,TemperatureF,DewpointF,PressureIn,WindDirection,WindDirectionDegrees,WindSpeedMPH,WindSpeedGustMPH,Humidity,HourlyPrecipIn,Conditions,Clouds,dailyrainin,SolarRadiationWatts/m^2,SoftwareType,DateUTC
2013-08-16 00:01:00,73.5,63.5,29.94,East,84,5.0,5.0,71,0.00,,---,0.00,0.00,VWS V14.01,2013-08-16 05:01:00,
2013-08-16 00:06:00,73.3,63.3,29.94,East,99,3.0,6.0,71,0.00,,---,0.00,0.00,VWS V14.01,2013-08-16 05:06:00,
2013-08-16 00:11:00,73.2,63.6,29.94,East,100,5.0,7.0,72,0.00,,---,0.00,0.00,VWS V14.01,2013-08-16 05:11:00,
2013-08-16 00:16:00,73.0,63.5,29.93,ESE,104,4.0,7.0,72,0.00,,---,0.00,0.00,VWS V14.01,2013-08-16 05:16:00,
2013-08-16 00:21:00,72.9,63.3,29.93,East,89,1.0,7.0,72,0.00,,---,0.00,0.00,VWS V14.01,2013-08-16 05:21:00,
2013-08-16 00:26:00,72.8,63.3,29.93,East,97,5.0,7.0,72,0.00,,---,0.00,0.00,VWS V14.01,2013-08-16 05:26:00,
2013-08-16 00:31:00,72.6,63.5,29.93,ESE,105,2.0,3.0,73,0.00,,---,0.00,0.00,VWS V14.01,2013-08-16 05:31:00,
2013-08-16 00:36:00,72.5,63.4,29.93,ESE,105,2.0,5.0,73,0.00,,---,0.00,0.00,VWS V14.01,2013-08-16 05:36:00,
2013-08-16 00:41:00,72.4,63.3,29.93,East,98,2.0,5.0,73,0.00,,---,0.00,0.00,VWS V14.01,2013-08-16 05:41:00,
2013-08-16 00:46:00,72.3,63.2,29.93,East,92,1.0,6.0,73,0.00,,---,0.00,0.00,VWS V14.01,2013-08-16 05:46:00,
2013-08-16 00:51:00,72.2,63.5,29.93,ENE,78,1.0,6.0,74,0.00,,---,0.00,0.00,VWS V14.01,2013-08-16 05:51:00,
2013-08-16 00:56:00,72.1,63.4,29.93,East,99,3.0,6.0,74,0.00,,---,0.00,0.00,VWS V14.01,2013-08-16 05:56:00,
2013-08-16 01:01:00,71.9,63.5,29.92,East,94,1.0,2.0,75,0.00,,---,0.00,0.00,VWS V14.01,2013-08-16 06:01:00,
2013-08-16 01:06:00,71.8,63.5,29.92,East,100,0.0,3.0,75,0.00,,---,0.00,0.00,VWS V14.01,2013-08-16 06:06:00,
2013-08-16 01:11:00,71.7,63.4,29.91,East,101,1.0,3.0,75,0.00,,---,0.00,0.00,VWS V14.01,2013-08-16 06:11:00,
2013-08-16 01:16:00,71.6,63.3,29.91,ESE,121,1.0,3.0,75,0.00,,---,0.00,0.00,VWS V14.01,2013-08-16 06:16:00,
2013-08-16 01:21:00,71.5,63.5,29.91,ESE,106,1.0,3.0,76,0.00,,---,0.00,0.00,VWS V14.01,2013-08-16 06:21:00,
2013-08-16 01:26:00,71.4,63.5,29.91,ESE,106,0.0,3.0,76,0.00,,---,0.00,0.00,VWS V14.01,2013-08-16 06:26:00,
2013-08-16 01:31:00,71.3,63.3,29.91,ESE,110,1.0,2.0,76,0.00,,---,0.00,0.00,VWS V14.01,2013-08-16 06:31:00,
2013-08-16 01:36:00,71.2,63.6,29.91,East,92,5.0,7.0,77,0.00,,---,0.00,0.00,VWS V14.01,2013-08-16 06:36:00,
2013-08-16 01:41:00,71.2,63.6,29.92,East,96,6.0,9.0,77,0.00,,---,0.00,0.00,VWS V14.01,2013-08-16 06:41:00,
2013-08-16 01:46:00,71.2,63.6,29.92,ESE,119,5.0,9.0,77,0.00,,---,0.00,0.00,VWS V14.01,2013-08-16 06:46:00,
2013-08-16 01:51:00,71.3,63.7,29.92,ESE,107,1.0,9.0,77,0.00,,---,0.00,0.00,VWS V14.01,2013-08-16 06:51:00,
2013-08-16 01:56:00,71.3,63.3,29.92,East,101,1.0,9.0,76,0.00,,---,0.00,0.00,VWS V14.01,2013-08-16 06:56:00,
2013-08-16 02:01:00,71.3,63.3,29.92,ESE,123,1.0,9.0,76,0.00,,---,0.00,0.00,VWS V14.01,2013-08-16 07:01:00,
2013-08-16 02:06:00,71.3,63.3,29.92,East,98,2.0,5.0,76,0.00,,---,0.00,0.00,VWS V14.01,2013-08-16 07:06:00,
2013-08-16 02:11:00,71.2,63.3,29.91,East,100,2.0,6.0,76,0.00,,---,0.00,0.00,VWS V14.01,2013-08-16 07:11:00,
2013-08-16 02:16:00,71.1,63.2,29.91,ESE,114,2.0,6.0,76,0.00,,---,0.00,0.00,VWS V14.01,2013-08-16 07:16:00,
2013-08-16 02:21:00,71.0,63.4,29.90,East,96,2.0,6.0,77,0.00,,---,0.00,0.00,VWS V14.01,2013-08-16 07:21:00,
2013-08-16 02:26:00,70.9,63.3,29.90,ESE,107,2.0,6.0,77,0.00,,---,0.00,0.00,VWS V14.01,2013-08-16 07:26:00,
2013-08-16 02:31:00,70.9,63.3,29.91,SE,134,1.0,1.0,77,0.00,,---,0.00,0.00,VWS V14.01,2013-08-16 07:31:00,
2013-08-16 02:36:00,70.8,63.2,29.92,East,94,2.0,6.0,77,0.00,,---,0.00,0.00,VWS V14.01,2013-08-16 07:36:00,
2013-08-16 02:41:00,70.8,63.2,29.92,East,83,3.0,6.0,77,0.00,,---,0.00,0.00,VWS V14.01,2013-08-16 07:41:00,
2013-08-16 02:46:00,70.8,63.2,29.93,SE,125,0.0,6.0,77,0.00,,---,0.00,0.00,VWS V14.01,2013-08-16 07:46:00,
2013-08-16 02:51:00,70.8,63.2,29.92,South,170,2.0,6.0,77,0.00,,---,0.00,0.00,VWS V14.01,2013-08-16 07:51:00,
2013-08-16 02:56:00,70.8,63.2,29.91,SSE,167,5.0,6.0,77,0.00,,---,0.00,0.00,VWS V14.01,2013-08-16 07:56:00,
2013-08-16 03:01:00,70.8,63.2,29.91,SSE,166,1.0,6.0,77,0.00,,---,0.00,0.00,VWS V14.01,2013-08-16 08:01:00,
2013-08-16 03:06:00,70.8,63.2,29.93,North,9,3.0,4.0,77,0.00,,---,0.00,0.00,VWS V14.01,2013-08-16 08:06:00,
2013-08-16 03:11:00,71.0,63.4,29.97,NNE,27,10.0,16.0,77,0.00,,---,0.00,0.00,VWS V14.01,2013-08-16 08:11:00,
2013-08-16 03:16:00,71.5,63.2,29.98,NE,41,8.0,20.0,75,0.00,,---,0.00,0.00,VWS V14.01,2013-08-16 08:16:00,
2013-08-16 03:21:00,72.4,64.0,29.98,NE,42,9.0,20.0,75,0.00,,---,0.00,0.00,VWS V14.01,2013-08-16 08:21:00,
2013-08-16 03:26:00,73.4,61.4,30.00,WNW,294,9.0,20.0,66,0.00,,---,0.00,0.00,VWS V14.01,2013-08-16 08:26:00,
2013-08-16 03:31:00,72.7,62.4,30.01,NW,319,13.0,21.0,70,0.02,,---,0.02,0.00,VWS V14.01,2013-08-16 08:31:00,
2013-08-16 03:36:00,69.2,60.6,30.00,WNW,286,24.0,27.0,74,0.18,,---,0.18,0.00,VWS V14.01,2013-08-16 08:36:00,
2013-08-16 03:41:00,65.3,58.3,29.99,West,277,19.0,30.0,78,0.24,,---,0.24,0.00,VWS V14.01,2013-08-16 08:41:00,
2013-08-16 03:46:00,64.0,58.4,29.96,SW,229,11.0,30.0,82,0.26,,---,0.26,0.00,VWS V14.01,2013-08-16 08:46:00,
2013-08-16 03:51:00,63.9,58.6,29.94,SW,229,9.0,30.0,83,0.28,,---,0.28,0.00,VWS V14.01,2013-08-16 08:51:00,
2013-08-16 03:56:00,63.9,59.0,29.93,SSW,212,5.0,30.0,84,0.30,,---,0.30,0.00,VWS V14.01,2013-08-16 08:56:00,
2013-08-16 04:01:00,63.9,59.0,29.94,ESE,111,5.0,30.0,84,0.33,,---,0.33,0.00,VWS V14.01,2013-08-16 09:01:00,
2013-08-16 04:06:00,64.0,59.4,29.95,ESE,107,3.0,7.0,85,0.34,,---,0.34,0.00,VWS V14.01,2013-08-16 09:06:00,
2013-08-16 04:11:00,63.9,59.3,29.94,SSE,165,1.0,7.0,85,0.34,,---,0.34,0.00,VWS V14.01,2013-08-16 09:11:00,
2013-08-16 04:16:00,63.8,59.5,29.96,East,95,3.0,7.0,86,0.34,,---,0.34,0.00,VWS V14.01,2013-08-16 09:16:00,
2013-08-16 04:21:00,63.8,59.9,29.99,South,175,2.0,7.0,87,0.35,,---,0.35,0.00,VWS V14.01,2013-08-16 09:21:00,
2013-08-16 04:26:00,63.7,59.4,29.99,SSE,158,7.0,8.0,86,0.35,,---,0.35,0.00,VWS V14.01,2013-08-16 09:26:00,
2013-08-16 04:31:00,63.7,59.8,29.95,South,170,8.0,12.0,87,0.36,,---,0.36,0.00,VWS V14.01,2013-08-16 09:31:00,
2013-08-16 04:36:00,64.0,59.7,29.93,SSE,155,9.0,18.0,86,0.35,,---,0.37,0.00,VWS V14.01,2013-08-16 09:36:00,
2013-08-16 04:41:00,64.5,59.9,29.94,WSW,258,6.0,18.0,85,0.35,,---,0.37,0.00,VWS V14.01,2013-08-16 09:41:00,
2013-08-16 04:46:00,64.5,59.9,29.98,WNW,285,3.0,18.0,85,0.35,,---,0.37,0.00,VWS V14.01,2013-08-16 09:46:00,
2013-08-16 04:50:00,64.6,60.0,29.99,West,267,8.0,18.0,85,0.35,,---,0.37,0.00,VWS V14.01,2013-08-16 09:50:00,
2013-08-16 04:55:00,64.7,60.1,29.98,WNW,294,4.0,18.0,85,0.36,,---,0.38,0.00,VWS V14.01,2013-08-16 09:55:00,
2013-08-16 05:00:00,64.8,60.2,29.98,WNW,299,4.0,18.0,85,0.36,,---,0.38,0.00,VWS V14.01,2013-08-16 10:00:00,
2013-08-16 05:05:00,64.7,60.4,29.99,NW,325,1.0,5.0,86,0.05,,---,0.38,0.00,VWS V14.01,2013-08-16 10:05:00,
2013-08-16 05:10:00,64.7,60.4,29.96,NE,44,2.0,5.0,86,0.05,,---,0.38,0.00,VWS V14.01,2013-08-16 10:10:00,
2013-08-16 05:15:00,64.7,60.4,29.95,SSE,158,2.0,5.0,86,0.05,,---,0.38,0.00,VWS V14.01,2013-08-16 10:15:00,
2013-08-16 05:20:00,64.8,60.8,29.97,South,180,4.0,5.0,87,0.05,,---,0.38,0.00,VWS V14.01,2013-08-16 10:20:00,
2013-08-16 05:25:00,64.8,60.8,30.02,NW,325,2.0,6.0,87,0.05,,---,0.38,0.00,VWS V14.01,2013-08-16 10:25:00,
2013-08-16 05:30:00,64.8,60.8,30.00,North,355,4.0,8.0,87,0.05,,---,0.38,0.00,VWS V14.01,2013-08-16 10:30:00,
2013-08-16 05:35:00,64.8,60.8,29.94,SSE,161,11.0,14.0,87,0.02,,---,0.38,0.00,VWS V14.01,2013-08-16 10:35:00,
2013-08-16 05:40:00,64.7,60.8,30.00,East,85,8.0,14.0,87,0.02,,---,0.38,0.00,VWS V14.01,2013-08-16 10:40:00,
2013-08-16 05:45:00,64.7,60.8,29.98,SSE,165,1.0,14.0,87,0.02,,---,0.38,0.00,VWS V14.01,2013-08-16 10:45:00,
2013-08-16 05:50:00,64.6,61.0,29.99,ESE,109,1.0,14.0,88,0.02,,---,0.38,0.00,VWS V14.01,2013-08-16 10:50:00,
2013-08-16 05:55:00,64.7,61.1,29.96,South,185,12.0,14.0,88,0.02,,---,0.38,0.00,VWS V14.01,2013-08-16 10:55:00,
2013-08-16 06:00:00,64.6,61.0,30.00,NNE,28,8.0,14.0,88,0.02,,---,0.38,0.00,VWS V14.01,2013-08-16 11:00:00,
2013-08-16 06:05:00,64.7,61.1,30.00,ENE,71,1.0,8.0,88,0.00,,---,0.38,0.00,VWS V14.01,2013-08-16 11:05:00,
2013-08-16 06:10:00,64.7,61.1,29.99,South,171,3.0,8.0,88,0.01,,---,0.39,0.00,VWS V14.01,2013-08-16 11:10:00,
2013-08-16 06:15:00,65.0,61.7,29.94,East,86,3.0,8.0,89,0.01,,---,0.39,0.00,VWS V14.01,2013-08-16 11:15:00,
2013-08-16 06:20:00,65.1,61.8,29.99,West,260,9.0,9.0,89,0.01,,---,0.39,0.00,VWS V14.01,2013-08-16 11:20:00,
2013-08-16 06:25:00,65.0,61.4,29.97,West,273,5.0,9.0,88,0.01,,---,0.39,0.00,VWS V14.01,2013-08-16 11:25:00,
2013-08-16 06:30:00,65.0,61.7,30.00,SSW,207,7.0,10.0,89,0.01,,---,0.39,0.00,VWS V14.01,2013-08-16 11:30:00,
2013-08-16 06:35:00,65.0,61.7,29.98,NW,305,4.0,9.0,89,0.01,,---,0.39,0.00,VWS V14.01,2013-08-16 11:35:00,
2013-08-16 06:40:00,65.0,61.7,29.99,ESE,117,3.0,9.0,89,0.01,,---,0.39,0.00,VWS V14.01,2013-08-16 11:40:00,
2013-08-16 06:45:00,65.0,61.7,30.01,NNE,28,2.0,9.0,89,0.01,,---,0.39,0.00,VWS V14.01,2013-08-16 11:45:00,
2013-08-16 06:50:00,65.0,61.7,29.97,SSE,156,5.0,12.0,89,0.01,,---,0.39,0.00,VWS V14.01,2013-08-16 11:50:00,
2013-08-16 06:55:00,65.1,61.8,29.95,SSE,156,9.0,12.0,89,0.01,,---,0.39,0.00,VWS V14.01,2013-08-16 11:55:00,
2013-08-16 07:00:00,65.0,61.7,29.96,North,355,5.0,15.0,89,0.01,,---,0.39,0.00,VWS V14.01,2013-08-16 12:00:00,
2013-08-16 07:05:00,65.1,61.8,30.01,NW,317,2.0,7.0,89,0.01,,---,0.39,0.00,VWS V14.01,2013-08-16 12:05:00,
2013-08-16 07:10:00,65.1,61.8,30.01,WSW,246,7.0,7.0,89,0.01,,---,0.39,0.00,VWS V14.01,2013-08-16 12:10:00,
2013-08-16 07:15:00,65.1,61.8,29.98,SSE,161,8.0,8.0,89,0.01,,---,0.39,0.00,VWS V14.01,2013-08-16 12:15:00,
2013-08-16 07:20:00,65.0,61.7,30.00,East,99,3.0,9.0,89,0.01,,---,0.39,0.00,VWS V14.01,2013-08-16 12:20:00,
2013-08-16 07:25:00,65.0,61.7,30.01,SSW,206,8.0,9.0,89,0.01,,---,0.39,0.00,VWS V14.01,2013-08-16 12:25:00,
2013-08-16 07:30:00,65.0,61.7,30.01,East,98,6.0,10.0,89,0.01,,---,0.39,0.00,VWS V14.01,2013-08-16 12:30:00,
2013-08-16 07:35:00,65.0,61.7,30.00,SSE,165,6.0,8.0,89,0.00,,---,0.39,0.00,VWS V14.01,2013-08-16 12:35:00,
2013-08-16 07:40:00,65.0,61.7,29.95,SSE,167,15.0,16.0,89,0.00,,---,0.39,0.00,VWS V14.01,2013-08-16 12:40:00,
2013-08-16 07:45:00,65.0,61.7,29.96,WNW,296,6.0,17.0,89,0.00,,---,0.39,0.00,VWS V14.01,2013-08-16 12:45:00,
2013-08-16 07:50:00,65.0,61.7,30.03,NW,311,6.0,17.0,89,0.00,,---,0.39,0.00,VWS V14.01,2013-08-16 12:50:00,
2013-08-16 07:55:00,64.9,61.6,30.01,SSE,153,3.0,17.0,89,0.00,,---,0.39,5.00,VWS V14.01,2013-08-16 12:55:00,
2013-08-16 08:00:00,64.9,61.6,30.00,South,171,9.0,17.0,89,0.00,,---,0.39,7.00,VWS V14.01,2013-08-16 13:00:00,
2013-08-16 08:05:00,64.9,61.6,30.02,SW,214,5.0,11.0,89,0.00,,---,0.39,7.00,VWS V14.01,2013-08-16 13:05:00,
2013-08-16 08:10:00,64.9,61.6,29.99,South,191,7.0,11.0,89,0.00,,---,0.39,9.00,VWS V14.01,2013-08-16 13:10:00,
2013-08-16 08:15:00,64.9,61.6,30.01,WSW,244,4.0,11.0,89,0.00,,---,0.39,14.00,VWS V14.01,2013-08-16 13:15:00,
2013-08-16 08:20:00,64.9,61.6,30.00,SSE,160,3.0,11.0,89,0.00,,---,0.39,25.00,VWS V14.01,2013-08-16 13:20:00,
2013-08-16 08:25:00,65.0,61.7,29.99,WSW,246,8.0,11.0,89,0.00,,---,0.39,33.00,VWS V14.01,2013-08-16 13:25:00,
2013-08-16 08:30:00,65.1,61.8,30.03,WSW,242,9.0,11.0,89,0.00,,---,0.39,51.00,VWS V14.01,2013-08-16 13:30:00,
2013-08-16 08:35:00,65.2,61.9,30.02,SSW,208,6.0,6.0,89,0.00,,---,0.39,74.00,VWS V14.01,2013-08-16 13:35:00,
2013-08-16 08:40:00,65.4,62.1,30.00,South,186,3.0,7.0,89,0.00,,---,0.39,104.00,VWS V14.01,2013-08-16 13:40:00,
2013-08-16 08:45:00,65.5,62.2,30.01,SW,225,3.0,7.0,89,0.00,,---,0.39,130.00,VWS V14.01,2013-08-16 13:45:00,
2013-08-16 08:50:00,65.8,62.5,29.99,SSW,192,2.0,7.0,89,0.00,,---,0.39,160.00,VWS V14.01,2013-08-16 13:50:00,
2013-08-16 08:55:00,66.0,62.7,30.00,SSW,212,7.0,8.0,89,0.00,,---,0.39,195.00,VWS V14.01,2013-08-16 13:55:00,
2013-08-16 09:00:00,66.2,62.9,30.00,SW,217,9.0,10.0,89,0.00,,---,0.39,359.00,VWS V14.01,2013-08-16 14:00:00,
2013-08-16 09:05:00,66.4,63.1,30.00,West,259,8.0,12.0,89,0.00,,---,0.39,366.00,VWS V14.01,2013-08-16 14:05:00,
2013-08-16 09:10:00,66.7,63.0,30.00,SW,221,8.0,13.0,88,0.00,,---,0.39,325.00,VWS V14.01,2013-08-16 14:10:00,
2013-08-16 09:15:00,67.0,63.3,30.00,SSW,205,7.0,13.0,88,0.00,,---,0.39,390.00,VWS V14.01,2013-08-16 14:15:00,
2013-08-16 09:20:00,67.6,63.6,30.00,SW,227,9.0,14.0,87,0.00,,---,0.39,403.00,VWS V14.01,2013-08-16 14:20:00,
2013-08-16 09:25:00,68.0,63.7,30.00,SSW,211,7.0,14.0,86,0.00,,---,0.39,418.00,VWS V14.01,2013-08-16 14:25:00,
2013-08-16 09:30:00,68.5,63.5,30.00,SW,223,8.0,14.0,84,0.00,,---,0.39,431.00,VWS V14.01,2013-08-16 14:30:00,
2013-08-16 09:35:00,69.2,63.8,30.00,SW,218,6.0,8.0,83,0.00,,---,0.39,448.00,VWS V14.01,2013-08-16 14:35:00,
2013-08-16 09:40:00,69.8,64.1,30.00,South,169,4.0,10.0,82,0.00,,---,0.39,461.00,VWS V14.01,2013-08-16 14:40:00,
2013-08-16 09:45:00,70.5,64.0,30.00,SSW,196,3.0,10.0,80,0.00,,---,0.39,478.00,VWS V14.01,2013-08-16 14:45:00,
2013-08-16 09:50:00,71.0,63.4,30.00,South,180,6.0,14.0,77,0.00,,---,0.39,499.00,VWS V14.01,2013-08-16 14:50:00,
2013-08-16 09:55:00,71.6,64.0,30.00,SW,223,5.0,14.0,77,0.00,,---,0.39,515.00,VWS V14.01,2013-08-16 14:55:00,
2013-08-16 10:00:00,72.3,63.9,30.00,SSE,167,7.0,14.0,75,0.00,,---,0.39,534.00,VWS V14.01,2013-08-16 15:00:00,
2013-08-16 10:05:00,72.7,63.5,30.00,SW,229,10.0,11.0,73,0.00,,---,0.39,554.00,VWS V14.01,2013-08-16 15:05:00,
2013-08-16 10:10:00,73.3,64.1,30.00,South,185,4.0,11.0,73,0.00,,---,0.39,566.00,VWS V14.01,2013-08-16 15:10:00,
2013-08-16 10:15:00,73.9,63.9,30.00,SW,215,5.0,11.0,71,0.00,,---,0.39,582.00,VWS V14.01,2013-08-16 15:15:00,
2013-08-16 10:20:00,74.7,63.9,30.00,South,186,5.0,11.0,69,0.00,,---,0.39,603.00,VWS V14.01,2013-08-16 15:20:00,
2013-08-16 10:25:00,74.8,63.1,30.00,WSW,240,12.0,15.0,67,0.00,,---,0.39,615.00,VWS V14.01,2013-08-16 15:25:00,
2013-08-16 10:30:00,74.8,63.1,30.00,SSW,208,7.0,15.0,67,0.00,,---,0.39,626.00,VWS V14.01,2013-08-16 15:30:00,
2013-08-16 10:35:00,75.0,63.7,30.00,South,191,8.0,13.0,68,0.00,,---,0.39,642.00,VWS V14.01,2013-08-16 15:35:00,
2013-08-16 10:40:00,75.5,63.8,30.00,SW,236,6.0,13.0,67,0.00,,---,0.39,656.00,VWS V14.01,2013-08-16 15:40:00,
2013-08-16 10:45:00,76.2,64.0,30.00,South,184,7.0,13.0,66,0.00,,---,0.39,668.00,VWS V14.01,2013-08-16 15:45:00,
2013-08-16 10:50:00,76.8,63.7,30.00,SW,219,11.0,13.0,64,0.00,,---,0.39,680.00,VWS V14.01,2013-08-16 15:50:00,
2013-08-16 10:55:00,76.9,64.2,30.00,SW,219,4.0,13.0,65,0.00,,---,0.39,694.00,VWS V14.01,2013-08-16 15:55:00,
2013-08-16 11:00:00,76.9,63.4,30.00,South,178,6.0,13.0,63,0.00,,---,0.39,708.00,VWS V14.01,2013-08-16 16:00:00,
2013-08-16 11:05:00,77.1,64.0,30.00,SW,230,4.0,10.0,64,0.00,,---,0.39,719.00,VWS V14.01,2013-08-16 16:05:00,
2013-08-16 11:10:00,77.3,64.2,30.00,SW,222,6.0,12.0,64,0.00,,---,0.39,731.00,VWS V14.01,2013-08-16 16:10:00,
2013-08-16 11:15:00,77.2,63.6,30.00,West,266,5.0,12.0,63,0.00,,---,0.39,744.00,VWS V14.01,2013-08-16 16:15:00,
2013-08-16 11:20:00,77.2,63.6,30.00,SW,227,6.0,12.0,63,0.00,,---,0.39,756.00,VWS V14.01,2013-08-16 16:20:00,
2013-08-16 11:25:00,77.4,63.8,30.00,SW,234,8.0,12.0,63,0.00,,---,0.39,770.00,VWS V14.01,2013-08-16 16:25:00,
2013-08-16 11:30:00,77.6,64.5,30.00,West,271,5.0,12.0,64,0.00,,---,0.39,780.00,VWS V14.01,2013-08-16 16:30:00,
2013-08-16 11:35:00,77.9,64.8,30.00,SW,231,8.0,12.0,64,0.00,,---,0.39,793.00,VWS V14.01,2013-08-16 16:35:00,
2013-08-16 11:40:00,78.6,64.5,30.00,SW,223,8.0,12.0,62,0.00,,---,0.39,802.00,VWS V14.01,2013-08-16 16:40:00,
2013-08-16 11:45:00,79.6,65.4,30.00,West,261,3.0,12.0,62,0.00,,---,0.39,814.00,VWS V14.01,2013-08-16 16:45:00,
2013-08-16 11:50:00,79.5,64.9,29.99,SW,215,10.0,12.0,61,0.00,,---,0.39,823.00,VWS V14.01,2013-08-16 16:50:00,
2013-08-16 11:55:00,79.5,64.9,29.99,West,275,7.0,12.0,61,0.00,,---,0.39,831.00,VWS V14.01,2013-08-16 16:55:00,
2013-08-16 12:00:00,80.1,64.5,29.99,SSW,194,2.0,12.0,59,0.00,,---,0.39,842.00,VWS V14.01,2013-08-16 17:00:00,
2013-08-16 12:05:00,80.9,64.8,29.99,SSW,193,4.0,13.0,58,0.00,,---,0.39,854.00,VWS V14.01,2013-08-16 17:05:00,
2013-08-16 12:10:00,81.3,65.1,29.99,SSW,200,6.0,13.0,58,0.00,,---,0.39,860.00,VWS V14.01,2013-08-16 17:10:00,
2013-08-16 12:15:00,81.2,65.0,29.99,WSW,237,6.0,13.0,58,0.00,,---,0.39,868.00,VWS V14.01,2013-08-16 17:15:00,
2013-08-16 12:20:00,81.1,64.9,29.99,SSE,167,6.0,13.0,58,0.00,,---,0.39,875.00,VWS V14.01,2013-08-16 17:20:00,
2013-08-16 12:25:00,81.8,64.6,29.99,SSE,150,9.0,13.0,56,0.00,,---,0.39,881.00,VWS V14.01,2013-08-16 17:25:00,
2013-08-16 12:30:00,82.2,65.0,29.99,SW,228,6.0,13.0,56,0.00,,---,0.39,889.00,VWS V14.01,2013-08-16 17:30:00,
2013-08-16 12:35:00,82.5,65.2,29.99,SE,146,2.0,9.0,56,0.00,,---,0.39,895.00,VWS V14.01,2013-08-16 17:35:00,
2013-08-16 12:40:00,82.8,65.0,29.99,SSW,209,3.0,10.0,55,0.00,,---,0.39,902.00,VWS V14.01,2013-08-16 17:40:00,
2013-08-16 12:45:00,82.6,66.3,29.99,SSW,202,4.0,10.0,58,0.00,,---,0.39,907.00,VWS V14.01,2013-08-16 17:45:00,
2013-08-16 12:50:00,83.3,66.0,29.98,SSW,195,7.0,10.0,56,0.00,,---,0.39,909.00,VWS V14.01,2013-08-16 17:50:00,
2013-08-16 12:55:00,83.8,65.4,29.98,West,259,3.0,10.0,54,0.00,,---,0.39,916.00,VWS V14.01,2013-08-16 17:55:00,
2013-08-16 13:00:00,83.6,66.3,29.98,South,190,3.0,10.0,56,0.00,,---,0.39,919.00,VWS V14.01,2013-08-16 18:00:00,
2013-08-16 13:05:00,84.5,66.1,29.98,SW,226,7.0,8.0,54,0.00,,---,0.39,923.00,VWS V14.01,2013-08-16 18:05:00,
2013-08-16 13:10:00,84.7,66.2,29.98,SSW,207,7.0,8.0,54,0.00,,---,0.39,928.00,VWS V14.01,2013-08-16 18:10:00,
2013-08-16 13:15:00,84.7,65.7,29.98,SW,227,6.0,8.0,53,0.00,,---,0.39,930.00,VWS V14.01,2013-08-16 18:15:00,
2013-08-16 13:20:00,84.8,66.3,29.98,SW,219,2.0,8.0,54,0.00,,---,0.39,933.00,VWS V14.01,2013-08-16 18:20:00,
2013-08-16 13:25:00,85.1,67.1,29.98,South,182,3.0,8.0,55,0.00,,---,0.39,933.00,VWS V14.01,2013-08-16 18:25:00,
2013-08-16 13:30:00,85.2,65.6,29.98,West,279,4.0,11.0,52,0.00,,---,0.39,937.00,VWS V14.01,2013-08-16 18:30:00,
2013-08-16 13:35:00,85.1,66.1,29.97,SSE,156,3.0,8.0,53,0.00,,---,0.39,939.00,VWS V14.01,2013-08-16 18:35:00,
2013-08-16 13:40:00,85.4,66.9,29.97,SSE,159,7.0,8.0,54,0.00,,---,0.39,940.00,VWS V14.01,2013-08-16 18:40:00,
2013-08-16 13:45:00,85.9,65.7,29.97,East,91,3.0,8.0,51,0.00,,---,0.39,942.00,VWS V14.01,2013-08-16 18:45:00,
2013-08-16 13:50:00,86.0,66.3,29.97,WSW,253,1.0,8.0,52,0.00,,---,0.39,942.00,VWS V14.01,2013-08-16 18:50:00,
2013-08-16 13:55:00,86.4,66.7,29.96,SE,134,3.0,8.0,52,0.00,,---,0.39,940.00,VWS V14.01,2013-08-16 18:55:00,
2013-08-16 14:00:00,87.2,66.3,29.96,SSW,205,1.0,8.0,50,0.00,,---,0.39,940.00,VWS V14.01,2013-08-16 19:00:00,
2013-08-16 14:05:00,87.4,67.1,29.96,South,173,2.0,5.0,51,0.00,,---,0.39,939.00,VWS V14.01,2013-08-16 19:05:00,
2013-08-16 14:10:00,88.3,66.7,29.96,NNE,31,3.0,5.0,49,0.00,,---,0.39,937.00,VWS V14.01,2013-08-16 19:10:00,
2013-08-16 14:15:00,88.4,67.4,29.96,NW,320,2.0,5.0,50,0.00,,---,0.39,935.00,VWS V14.01,2013-08-16 19:15:00,
2013-08-16 14:20:00,88.6,68.2,29.96,SSE,163,5.0,8.0,51,0.00,,---,0.39,933.00,VWS V14.01,2013-08-16 19:20:00,
2013-08-16 14:25:00,88.9,68.4,29.96,East,88,7.0,8.0,51,0.00,,---,0.39,926.00,VWS V14.01,2013-08-16 19:25:00,
2013-08-16 14:30:00,89.3,67.1,29.95,NE,46,1.0,8.0,48,0.00,,---,0.39,928.00,VWS V14.01,2013-08-16 19:30:00,
2013-08-16 14:35:00,89.9,65.7,29.95,East,100,2.0,7.0,45,0.00,,---,0.39,921.00,VWS V14.01,2013-08-16 19:35:00,
2013-08-16 14:40:00,89.5,66.0,29.95,ESE,123,0.0,7.0,46,0.00,,---,0.39,916.00,VWS V14.01,2013-08-16 19:40:00,
2013-08-16 14:45:00,89.3,67.1,29.95,SSE,155,3.0,7.0,48,0.00,,---,0.39,912.00,VWS V14.01,2013-08-16 19:45:00,
2013-08-16 14:50:00,89.9,65.7,29.95,SSW,192,1.0,7.0,45,0.00,,---,0.39,909.00,VWS V14.01,2013-08-16 19:50:00,
2013-08-16 14:55:00,90.4,66.2,29.95,SSE,155,2.0,9.0,45,0.00,,---,0.39,904.00,VWS V14.01,2013-08-16 19:55:00,
2013-08-16 15:00:00,90.9,66.6,29.95,SE,143,1.0,9.0,45,0.00,,---,0.39,898.00,VWS V14.01,2013-08-16 20:00:00,
2013-08-16 15:05:00,91.0,66.1,29.94,ESE,113,2.0,7.0,44,0.00,,---,0.39,893.00,VWS V14.01,2013-08-16 20:05:00,
2013-08-16 15:10:00,90.1,65.3,29.95,NNE,28,6.0,9.0,44,0.00,,---,0.39,881.00,VWS V14.01,2013-08-16 20:10:00,
2013-08-16 15:15:00,88.7,63.3,29.95,East,97,9.0,10.0,43,0.00,,---,0.39,874.00,VWS V14.01,2013-08-16 20:15:00,
2013-08-16 15:20:00,88.2,64.2,29.94,NE,46,1.0,10.0,45,0.00,,---,0.39,863.00,VWS V14.01,2013-08-16 20:20:00,
2013-08-16 15:25:00,88.2,64.2,29.94,ENE,76,5.0,10.0,45,0.00,,---,0.39,854.00,VWS V14.01,2013-08-16 20:25:00,
2013-08-16 15:30:00,87.7,65.0,29.94,ENE,62,3.0,10.0,47,0.00,,---,0.39,847.00,VWS V14.01,2013-08-16 20:30:00,
2013-08-16 15:35:00,88.7,66.5,29.94,ESE,114,2.0,3.0,48,0.00,,---,0.39,838.00,VWS V14.01,2013-08-16 20:35:00,
2013-08-16 15:40:00,89.5,66.0,29.94,ESE,111,4.0,8.0,46,0.00,,---,0.39,828.00,VWS V14.01,2013-08-16 20:40:00,
2013-08-16 15:45:00,89.3,65.8,29.94,ESE,111,7.0,9.0,46,0.00,,---,0.39,819.00,VWS V14.01,2013-08-16 20:45:00,
2013-08-16 15:50:00,88.6,65.8,29.94,ENE,76,5.0,10.0,47,0.00,,---,0.39,809.00,VWS V14.01,2013-08-16 20:50:00,
2013-08-16 15:55:00,88.6,65.2,29.93,SSE,159,1.0,10.0,46,0.00,,---,0.39,800.00,VWS V14.01,2013-08-16 20:55:00,
2013-08-16 16:00:00,89.2,63.8,29.93,East,87,0.0,10.0,43,0.00,,---,0.39,791.00,VWS V14.01,2013-08-16 21:00:00,
2013-08-16 16:05:00,89.4,65.3,29.93,SSE,150,3.0,8.0,45,0.00,,---,0.39,777.00,VWS V14.01,2013-08-16 21:05:00,
2013-08-16 16:10:00,89.2,65.7,29.93,ESE,119,2.0,13.0,46,0.00,,---,0.39,765.00,VWS V14.01,2013-08-16 21:10:00,
2013-08-16 16:15:00,89.7,66.8,29.93,SSE,150,2.0,13.0,47,0.00,,---,0.39,752.00,VWS V14.01,2013-08-16 21:15:00,
2013-08-16 16:20:00,89.8,64.3,29.93,ENE,62,5.0,13.0,43,0.00,,---,0.39,740.00,VWS V14.01,2013-08-16 21:20:00,
2013-08-16 16:25:00,89.3,65.2,29.93,East,95,3.0,13.0,45,0.00,,---,0.39,726.00,VWS V14.01,2013-08-16 21:25:00,
2013-08-16 16:30:00,88.8,64.7,29.93,East,93,1.0,13.0,45,0.00,,---,0.39,712.00,VWS V14.01,2013-08-16 21:30:00,
2013-08-16 16:35:00,89.4,65.9,29.93,East,85,5.0,8.0,46,0.00,,---,0.39,701.00,VWS V14.01,2013-08-16 21:35:00,
2013-08-16 16:40:00,88.9,64.8,29.93,East,101,7.0,12.0,45,0.00,,---,0.39,687.00,VWS V14.01,2013-08-16 21:40:00,
2013-08-16 16:45:00,89.1,65.6,29.93,East,96,5.0,12.0,46,0.00,,---,0.39,673.00,VWS V14.01,2013-08-16 21:45:00,
2013-08-16 16:50:00,89.9,66.4,29.93,SSE,155,3.0,12.0,46,0.00,,---,0.39,659.00,VWS V14.01,2013-08-16 21:50:00,
2013-08-16 16:55:00,90.2,65.4,29.92,ENE,76,3.0,12.0,44,0.00,,---,0.39,645.00,VWS V14.01,2013-08-16 21:55:00,
2013-08-16 17:00:00,89.7,65.6,29.93,East,94,8.0,12.0,45,0.00,,---,0.39,626.00,VWS V14.01,2013-08-16 22:00:00,
2013-08-16 17:05:00,89.3,65.2,29.93,NE,55,7.0,10.0,45,0.00,,---,0.39,608.00,VWS V14.01,2013-08-16 22:05:00,
2013-08-16 17:10:00,89.0,65.6,29.93,ESE,117,3.0,10.0,46,0.00,,---,0.39,596.00,VWS V14.01,2013-08-16 22:10:00,
2013-08-16 17:14:00,88.9,65.5,29.93,East,93,8.0,14.0,46,0.00,,---,0.39,584.00,VWS V14.01,2013-08-16 22:14:00,
2013-08-16 17:19:00,88.6,65.2,29.93,East,97,7.0,14.0,46,0.00,,---,0.39,564.00,VWS V14.01,2013-08-16 22:19:00,
2013-08-16 17:24:00,88.4,65.6,29.93,ENE,63,5.0,14.0,47,0.00,,---,0.39,545.00,VWS V14.01,2013-08-16 22:24:00,
2013-08-16 17:29:00,88.6,65.2,29.93,NNE,33,4.0,14.0,46,0.00,,---,0.39,526.00,VWS V14.01,2013-08-16 22:29:00,
2013-08-16 17:34:00,88.7,65.9,29.93,East,80,8.0,11.0,47,0.00,,---,0.39,512.00,VWS V14.01,2013-08-16 22:34:00,
2013-08-16 17:39:00,89.1,65.6,29.93,East,91,10.0,11.0,46,0.00,,---,0.39,496.00,VWS V14.01,2013-08-16 22:39:00,
2013-08-16 17:44:00,89.0,65.6,29.93,East,92,6.0,14.0,46,0.00,,---,0.39,480.00,VWS V14.01,2013-08-16 22:44:00,
2013-08-16 17:49:00,89.1,66.3,29.93,ENE,65,2.0,14.0,47,0.00,,---,0.39,464.00,VWS V14.01,2013-08-16 22:49:00,
2013-08-16 17:54:00,89.1,66.3,29.93,ENE,78,4.0,14.0,47,0.00,,---,0.39,445.00,VWS V14.01,2013-08-16 22:54:00,
2013-08-16 17:59:00,89.5,66.0,29.93,SE,125,3.0,14.0,46,0.00,,---,0.39,434.00,VWS V14.01,2013-08-16 22:59:00,
2013-08-16 18:04:00,89.9,66.4,29.93,ESE,103,2.0,8.0,46,0.00,,---,0.39,417.00,VWS V14.01,2013-08-16 23:04:00,
2013-08-16 18:09:00,89.6,66.1,29.93,ENE,72,8.0,10.0,46,0.00,,---,0.39,399.00,VWS V14.01,2013-08-16 23:09:00,
2013-08-16 18:14:00,89.3,65.2,29.93,East,90,6.0,13.0,45,0.00,,---,0.39,383.00,VWS V14.01,2013-08-16 23:14:00,
2013-08-16 18:19:00,88.9,65.5,29.93,ENE,59,5.0,13.0,46,0.00,,---,0.39,373.00,VWS V14.01,2013-08-16 23:19:00,
2013-08-16 18:24:00,88.5,65.7,29.93,East,101,10.0,13.0,47,0.00,,---,0.39,355.00,VWS V14.01,2013-08-16 23:24:00,
2013-08-16 18:29:00,88.2,65.4,29.93,East,82,6.0,15.0,47,0.00,,---,0.39,329.00,VWS V14.01,2013-08-16 23:29:00,
2013-08-16 18:34:00,88.3,66.1,29.93,ENE,74,4.0,8.0,48,0.00,,---,0.39,302.00,VWS V14.01,2013-08-16 23:34:00,
2013-08-16 18:39:00,88.1,65.3,29.93,East,88,5.0,11.0,47,0.00,,---,0.39,288.00,VWS V14.01,2013-08-16 23:39:00,
2013-08-16 18:44:00,87.9,65.8,29.93,East,88,5.0,11.0,48,0.00,,---,0.39,274.00,VWS V14.01,2013-08-16 23:44:00,
2013-08-16 18:49:00,87.8,65.1,29.93,ESE,119,7.0,11.0,47,0.00,,---,0.39,251.00,VWS V14.01,2013-08-16 23:49:00,
2013-08-16 18:54:00,87.6,65.5,29.93,East,83,3.0,11.0,48,0.00,,---,0.39,223.00,VWS V14.01,2013-08-16 23:54:00,
2013-08-16 18:59:00,87.5,65.4,29.93,East,92,13.0,13.0,48,0.00,,---,0.39,211.00,VWS V14.01,2013-08-16 23:59:00,
2013-08-16 19:04:00,87.2,65.1,29.93,ESE,106,8.0,11.0,48,0.00,,---,0.39,197.00,VWS V14.01,2013-08-17 00:04:00,
2013-08-16 19:09:00,87.0,65.6,29.93,East,99,7.0,13.0,49,0.00,,---,0.39,171.00,VWS V14.01,2013-08-17 00:09:00,
2013-08-16 19:14:00,86.7,65.3,29.93,East,98,5.0,13.0,49,0.00,,---,0.39,151.00,VWS V14.01,2013-08-17 00:14:00,
2013-08-16 19:19:00,86.5,65.7,29.93,East,95,6.0,13.0,50,0.00,,---,0.39,135.00,VWS V14.01,2013-08-17 00:19:00,
2013-08-16 19:24:00,86.3,65.5,29.93,East,90,8.0,13.0,50,0.00,,---,0.39,120.00,VWS V14.01,2013-08-17 00:24:00,
2013-08-16 19:29:00,86.1,65.9,29.93,ENE,70,3.0,13.0,51,0.00,,---,0.39,100.00,VWS V14.01,2013-08-17 00:29:00,
2013-08-16 19:34:00,85.9,66.2,29.94,East,84,6.0,9.0,52,0.00,,---,0.39,84.00,VWS V14.01,2013-08-17 00:34:00,
2013-08-16 19:39:00,85.7,66.1,29.94,East,80,8.0,10.0,52,0.00,,---,0.39,69.00,VWS V14.01,2013-08-17 00:39:00,
2013-08-16 19:44:00,85.5,65.9,29.94,East,89,9.0,11.0,52,0.00,,---,0.39,54.00,VWS V14.01,2013-08-17 00:44:00,
2013-08-16 19:49:00,85.2,66.2,29.94,East,86,7.0,13.0,53,0.00,,---,0.39,46.00,VWS V14.01,2013-08-17 00:49:00,
2013-08-16 19:54:00,84.9,66.4,29.94,East,96,5.0,13.0,54,0.00,,---,0.39,33.00,VWS V14.01,2013-08-17 00:54:00,
2013-08-16 19:59:00,84.6,66.7,29.95,ESE,104,5.0,13.0,55,0.00,,---,0.39,25.00,VWS V14.01,2013-08-17 00:59:00,
2013-08-16 20:04:00,84.2,66.8,29.95,ESE,120,5.0,9.0,56,0.00,,---,0.39,19.00,VWS V14.01,2013-08-17 01:04:00,
2013-08-16 20:09:00,83.8,66.4,29.95,East,84,7.0,10.0,56,0.00,,---,0.39,14.00,VWS V14.01,2013-08-17 01:09:00,
2013-08-16 20:14:00,83.4,67.1,29.96,East,82,6.0,10.0,58,0.00,,---,0.39,11.00,VWS V14.01,2013-08-17 01:14:00,
2013-08-16 20:19:00,83.0,67.2,29.96,East,101,7.0,10.0,59,0.00,,---,0.39,5.00,VWS V14.01,2013-08-17 01:19:00,
2013-08-16 20:24:00,82.5,67.2,29.96,ESE,103,8.0,10.0,60,0.00,,---,0.39,0.00,VWS V14.01,2013-08-17 01:24:00,
2013-08-16 20:29:00,82.1,66.8,29.96,East,97,9.0,10.0,60,0.00,,---,0.39,0.00,VWS V14.01,2013-08-17 01:29:00,
2013-08-16 20:34:00,81.7,66.9,29.96,ESE,105,9.0,10.0,61,0.00,,---,0.39,0.00,VWS V14.01,2013-08-17 01:34:00,
2013-08-16 20:39:00,81.3,67.1,29.97,East,90,8.0,10.0,62,0.00,,---,0.39,0.00,VWS V14.01,2013-08-17 01:39:00,
2013-08-16 20:44:00,80.9,67.1,29.97,East,99,5.0,10.0,63,0.00,,---,0.39,0.00,VWS V14.01,2013-08-17 01:44:00,
2013-08-16 20:49:00,80.6,67.3,29.97,ESE,104,5.0,10.0,64,0.00,,---,0.39,0.00,VWS V14.01,2013-08-17 01:49:00,
2013-08-16 20:54:00,80.3,67.0,29.97,ESE,102,10.0,10.0,64,0.00,,---,0.39,0.00,VWS V14.01,2013-08-17 01:54:00,
2013-08-16 20:59:00,80.2,66.9,29.97,East,85,6.0,10.0,64,0.00,,---,0.39,0.00,VWS V14.01,2013-08-17 01:59:00,
2013-08-16 21:04:00,80.0,67.2,29.97,ESE,108,4.0,7.0,65,0.00,,---,0.39,0.00,VWS V14.01,2013-08-17 02:04:00,
2013-08-16 21:09:00,79.6,66.8,29.98,East,101,3.0,8.0,65,0.00,,---,0.39,0.00,VWS V14.01,2013-08-17 02:09:00,
2013-08-16 21:14:00,79.3,67.0,29.98,ESE,109,5.0,9.0,66,0.00,,---,0.39,0.00,VWS V14.01,2013-08-17 02:14:00,
2013-08-16 21:19:00,79.1,66.8,29.98,ESE,102,5.0,9.0,66,0.00,,---,0.39,0.00,VWS V14.01,2013-08-17 02:19:00,
2013-08-16 21:24:00,79.0,66.7,29.98,East,99,6.0,9.0,66,0.00,,---,0.39,0.00,VWS V14.01,2013-08-17 02:24:00,
2013-08-16 21:29:00,78.9,67.0,29.98,ENE,74,8.0,10.0,67,0.00,,---,0.39,0.00,VWS V14.01,2013-08-17 02:29:00,
2013-08-16 21:34:00,78.8,66.9,29.99,ESE,103,4.0,10.0,67,0.00,,---,0.39,0.00,VWS V14.01,2013-08-17 02:34:00,
2013-08-16 21:39:00,78.8,66.9,29.99,East,92,6.0,13.0,67,0.00,,---,0.39,0.00,VWS V14.01,2013-08-17 02:39:00,
2013-08-16 21:44:00,78.7,67.3,29.99,East,92,5.0,13.0,68,0.00,,---,0.39,0.00,VWS V14.01,2013-08-17 02:44:00,
2013-08-16 21:49:00,78.5,67.1,30.00,ESE,111,3.0,13.0,68,0.00,,---,0.39,0.00,VWS V14.01,2013-08-17 02:49:00,
2013-08-16 21:54:00,78.3,66.9,30.00,East,90,8.0,13.0,68,0.00,,---,0.39,0.00,VWS V14.01,2013-08-17 02:54:00,
2013-08-16 21:59:00,78.0,67.0,30.00,ENE,78,4.0,13.0,69,0.00,,---,0.39,0.00,VWS V14.01,2013-08-17 02:59:00,
2013-08-16 22:04:00,77.8,66.8,30.00,East,101,8.0,9.0,69,0.00,,---,0.39,0.00,VWS V14.01,2013-08-17 03:04:00,
2013-08-16 22:09:00,77.6,67.1,30.00,ENE,74,5.0,10.0,70,0.00,,---,0.39,0.00,VWS V14.01,2013-08-17 03:09:00,
2013-08-16 22:14:00,77.5,66.9,30.01,East,84,7.0,14.0,70,0.00,,---,0.39,0.00,VWS V14.01,2013-08-17 03:14:00,
2013-08-16 22:19:00,77.3,66.8,30.01,East,88,7.0,14.0,70,0.00,,---,0.39,0.00,VWS V14.01,2013-08-17 03:19:00,
2013-08-16 22:24:00,77.2,66.7,30.01,East,93,9.0,14.0,70,0.00,,---,0.39,0.00,VWS V14.01,2013-08-17 03:24:00,
2013-08-16 22:29:00,77.0,66.9,30.01,East,97,10.0,14.0,71,0.00,,---,0.39,0.00,VWS V14.01,2013-08-17 03:29:00,
2013-08-16 22:34:00,76.9,66.8,30.01,East,90,8.0,10.0,71,0.00,,---,0.39,0.00,VWS V14.01,2013-08-17 03:34:00,
2013-08-16 22:39:00,76.8,66.7,30.01,East,79,11.0,11.0,71,0.00,,---,0.39,0.00,VWS V14.01,2013-08-17 03:39:00,
2013-08-16 22:44:00,76.6,66.5,30.01,East,96,6.0,11.0,71,0.00,,---,0.39,0.00,VWS V14.01,2013-08-17 03:44:00,
2013-08-16 22:49:00,76.6,66.5,30.01,East,92,5.0,14.0,71,0.00,,---,0.39,0.00,VWS V14.01,2013-08-17 03:49:00,
2013-08-16 22:54:00,76.5,66.4,30.01,ENE,59,5.0,15.0,71,0.00,,---,0.39,0.00,VWS V14.01,2013-08-17 03:54:00,
2013-08-16 22:59:00,76.4,66.3,30.01,East,90,9.0,15.0,71,0.00,,---,0.39,0.00,VWS V14.01,2013-08-17 03:59:00,
2013-08-16 23:01:00,76.3,66.2,30.01,East,84,8.0,15.0,71,0.00,,---,0.39,0.00,VWS V14.01,2013-08-17 04:01:00,
2013-08-16 23:06:00,76.1,66.4,30.01,East,98,9.0,11.0,72,0.00,,---,0.39,0.00,VWS V14.01,2013-08-17 04:06:00,
2013-08-16 23:11:00,75.8,66.1,30.01,East,93,8.0,11.0,72,0.00,,---,0.39,0.00,VWS V14.01,2013-08-17 04:11:00,
2013-08-16 23:16:00,75.7,66.0,30.01,East,88,7.0,12.0,72,0.00,,---,0.39,0.00,VWS V14.01,2013-08-17 04:16:00,
2013-08-16 23:21:00,75.6,65.9,30.02,East,94,9.0,13.0,72,0.00,,---,0.39,0.00,VWS V14.01,2013-08-17 04:21:00,
2013-08-16 23:26:00,75.5,65.8,30.01,East,87,7.0,13.0,72,0.00,,---,0.39,0.00,VWS V14.01,2013-08-17 04:26:00,
2013-08-16 23:31:00,75.4,65.8,30.02,East,94,7.0,7.0,72,0.00,,---,0.39,0.00,VWS V14.01,2013-08-17 04:31:00,
2013-08-16 23:36:00,75.2,65.6,30.02,ESE,103,5.0,13.0,72,0.00,,---,0.39,0.00,VWS V14.01,2013-08-17 04:36:00,
2013-08-16 23:41:00,75.0,65.8,30.02,ESE,102,5.0,13.0,73,0.00,,---,0.39,0.00,VWS V14.01,2013-08-17 04:41:00,
2013-08-16 23:46:00,74.8,65.6,30.02,East,94,5.0,13.0,73,0.00,,---,0.39,0.00,VWS V14.01,2013-08-17 04:46:00,
2013-08-16 23:51:00,74.6,65.4,30.02,East,87,6.0,13.0,73,0.00,,---,0.39,0.00,VWS V14.01,2013-08-17 04:51:00,
2013-08-16 23:56:00,74.4,65.2,30.02,ENE,71,7.0,13.0,73,0.00,,---,0.39,0.00,VWS V14.01,2013-08-17 04:56:00,